Content
SEND FEEDBACK

Daily
Averages
Monthly
Summary
United Kingdom

ASHINGTON, ENGLAND


Home > Europe > United Kingdom > England
Elevation: 137 feet     Latitude: 55 18N     Longitude: 001 38W

WEATHER
 
SELECT A DAY
Number of Records: 285,319;   Date Range: 7/1/96 - 7/29/14
 
SHARE

PRINT THIS DATA

[ ← Previous Day ]
WEATHER ALMANAC - JANUARY 11, 2014
[ Next Day → ]
[ °C ]   °F
Weather ElementAverageHighLow
Temperature36.8 °F41 °F (12:50 pm)33.8 °F (10:50 pm)
Dewpoint34.5 °F35.6 °F (12:50 am)33.8 °F (5:20 am)
Humidity91.9 %100 % (1:20 am)76 % (12:50 pm)
Barometer29.96 in30.15 in (10:50 pm)29.77 in (12:50 am)
Wind Speed13 mph21.9 mph (12:20 pm)
Weather ElementAverage
Visibility6.2 mi
Wind DirectionWSW (256 °)

Weather ElementTotal
Precipitation---
Heating Degree Days27.6 (Base 65)
Averaged from 45 records on January 11, 2014
WEATHER CONDITIONS BREAKOUT
WIND DIRECTION BREAKOUT
WEATHER BY HOUR - JANUARY 11, 2014
[ °C ]   °F
Local TimeTemperatureDewpointHumidityBarometerVisibilityWind DirectionWind SpeedGust SpeedPrecipitationEventsConditions
12:50 AM37.4 °F35.6 °F93 %29.77 in6.2 miWest (280°)9.2 mphScattered Clouds
1:20 AM35.6 °F35.6 °F100 %29.77 in6.2 miWest (280°)5.8 mphPartly Cloudy
1:50 AM35.6 °F35.6 °F100 %29.77 in6.2 miWest (270°)8.1 mphPartly Cloudy
2:20 AM35.6 °F35.6 °F100 %29.77 in6.2 miWSW (250°)6.9 mphPartly Cloudy
2:50 AM35.6 °F35.6 °F100 %29.77 in6.2 miWSW (250°)9.2 mphPartly Cloudy
3:20 AM35.6 °F35.6 °F100 %29.80 in6.2 miWest (260°)9.2 mphPartly Cloudy
4:20 AM35.6 °F35.6 °F100 %29.80 in6.2 miWest (270°)11.5 mphPartly Cloudy
5:20 AM35.6 °F33.8 °F93 %29.80 in6.2 miWest (260°)15.0 mphPartly Cloudy
5:50 AM35.6 °F35.6 °F100 %29.83 in6.2 miWest (270°)12.7 mphPartly Cloudy
6:20 AM35.6 °F33.8 °F93 %29.83 in6.2 miWest (270°)9.2 mphPartly Cloudy
6:50 AM35.6 °F35.6 °F100 %29.83 in6.2 miWest (270°)12.7 mphPartly Cloudy
7:20 AM35.6 °F35.6 °F100 %29.83 in6.2 miWest (260°)13.8 mphPartly Cloudy
7:50 AM35.6 °F35.6 °F100 %29.86 in6.2 miWest (260°)11.5 mphPartly Cloudy
8:20 AM35.6 °F35.6 °F100 %29.86 in6.2 miWest (260°)11.5 mphPartly Cloudy
8:50 AM35.6 °F33.8 °F93 %29.89 in6.2 miWest (260°)15.0 mphPartly Cloudy
9:20 AM35.6 °F33.8 °F93 %29.89 in6.2 miWSW (250°)13.8 mphPartly Cloudy
9:50 AM37.4 °F35.6 °F93 %29.89 in6.2 miWest (260°)17.3 mphPartly Cloudy
10:20 AM37.4 °F35.6 °F93 %29.92 in6.2 miWest (260°)17.3 mphPartly Cloudy
10:50 AM37.4 °F35.6 °F93 %29.92 in6.2 miWest (260°)13.8 mphPartly Cloudy
11:20 AM39.2 °F35.6 °F87 %29.92 in6.2 miWest (280°)18.4 mphPartly Cloudy
11:50 AM39.2 °F35.6 °F87 %29.92 in6.2 miWest (270°)19.6 mphPartly Cloudy
12:20 PM39.2 °F35.6 °F87 %29.95 in6.2 miWest (270°)21.9 mphPartly Cloudy
12:50 PM41.0 °F33.8 °F76 %29.95 in6.2 miWest (260°)18.4 mphPartly Cloudy
1:20 PM41.0 °F33.8 °F76 %29.98 in6.2 miWest (270°)20.7 mphPartly Cloudy
1:50 PM39.2 °F33.8 °F81 %29.98 in6.2 miWest (270°)15.0 mphPartly Cloudy
2:20 PM39.2 °F33.8 °F81 %30.01 in6.2 miWest (260°)18.4 mphPartly Cloudy
2:50 PM39.2 °F33.8 °F81 %30.01 in6.2 miWest (260°)20.7 mphPartly Cloudy
3:20 PM39.2 °F33.8 °F81 %30.01 in6.2 miWest (260°)16.1 mphPartly Cloudy
3:50 PM39.2 °F33.8 °F81 %30.01 in6.2 miWest (260°)17.3 mphPartly Cloudy
4:20 PM37.4 °F33.8 °F87 %30.04 in6.2 miWest (260°)15.0 mphPartly Cloudy
4:50 PM37.4 °F33.8 °F87 %30.04 inWest (260°)15.0 mphClear
5:20 PM37.4 °F33.8 °F87 %30.04 inWSW (250°)10.4 mphClear
5:50 PM37.4 °F33.8 °F87 %30.06 inWSW (250°)11.5 mphClear
6:20 PM35.6 °F33.8 °F93 %30.06 inWest (260°)10.4 mphClear
6:50 PM35.6 °F33.8 °F93 %30.09 inWest (260°)10.4 mphClear
7:20 PM35.6 °F33.8 °F93 %30.09 inWest (270°)9.2 mphClear
7:50 PM35.6 °F33.8 °F93 %30.09 inWest (260°)11.5 mphClear
8:20 PM37.4 °F33.8 °F87 %30.09 inWSW (250°)13.8 mphClear
8:50 PM35.6 °F33.8 °F93 %30.12 inWSW (250°)12.7 mphClear
9:20 PM35.6 °F33.8 °F93 %30.12 inWest (260°)13.8 mphClear
9:50 PM35.6 °F33.8 °F93 %30.12 inWSW (250°)12.7 mphClear
10:20 PM35.6 °F33.8 °F93 %30.12 inWSW (250°)9.2 mphClear
10:50 PM33.8 °F33.8 °F100 %30.15 inVariable2.3 mphClear
11:20 PM35.6 °F33.8 °F93 %30.12 inWest (270°)9.2 mphClear
11:50 PM33.8 °F33.8 °F100 %30.15 inWest (260°)8.1 mphClear
Hourly data recorded from EGNT, located miles away from Ashington, England







STORIES FROM OUR PARTNERS